Dewpoint
-19 -19 -19 -19 -19 -19 -19 -18 -16 -15 -15 -14 -14 -14 -15 -15 -14 -14 -15 -15 -15 -15 -16 -17 -17 -17 -17 -17 -17 -17 -17 -17 -17 -18 -18 -19 -20 -20 -18 -17 -16 -16 -16 -15 -16 -16 -16 -16 -16 -16 -17 -21 -25 -28 -29 -27 -28 -28 -22 -18 -16 -12 -9
-19 -19 -19 -20 -21 -21 -21 -19 -18 -17 -16 -15 -15 -15 -14 -14 -14 -14 -15 -15 -15 -16 -16 -16 -16 -16 -17 -17 -17 -17 -17 -17 -18 -18 -19 -19 -20 -20 -19 -17 -16 -16 -16 -16 -16 -16 -16 -16 -16 -16 -17 -17 -20 -25 -25 -24 -25 -25 -20 -17 -18 -15 -11
-19 -19 -19 -20 -20 -20 -20 -20 -19 -18 -17 -16 -16 -16 -15 -15 -14 -15 -15 -16 -16 -16 -16 -16 -16 -16 -17 -17 -17 -17 -17 -18 -19 -19 -20 -20 -21 -21 -19 -17 -16 -16 -16 -16 -16 -16 -16 -16 -17 -17 -17 -16 -18 -21 -20 -19 -20 -21 -19 -15 -13 -13 -11
-19 -19 -19 -19 -19 -19 -19 -18 -19 -19 -18 -17 -17 -16 -16 -15 -15 -15 -16 -16 -16 -16 -16 -16 -16 -17 -17 -17 -17 -17 -18 -19 -20 -20 -21 -21 -22 -22 -21 -18 -17 -17 -16 -16 -17 -17 -17 -17 -17 -17 -17 -17 -18 -17 -16 -15 -15 -17 -19 -16 -12 -11 -11
-19 -19 -19 -19 -19 -19 -19 -18 -19 -19 -19 -19 -18 -17 -17 -16 -17 -17 -17 -17 -17 -17 -17 -17 -17 -17 -17 -17 -18 -18 -19 -20 -21 -22 -22 -22 -22 -23 -21 -18 -17 -17 -17 -17 -17 -18 -18 -18 -18 -18 -18 -17 -16 -15 -15 -15 -15 -16 -19 -17 -12 -10 -10
-19 -19 -19 -19 -19 -19 -19 -19 -19 -19 -19 -19 -19 -19 -18 -18 -18 -18 -18 -18 -18 -18 -18 -18 -18 -18 -18 -18 -19 -19 -19 -20 -22 -22 -22 -22 -22 -22 -20 -19 -18 -18 -18 -18 -18 -18 -18 -18 -18 -18 -17 -16 -15 -15 -15 -16 -16 -17 -18 -16 -13 -11 -10
-19 -19 -19 -19 -19 -19 -19 -20 -20 -20 -20 -20 -20 -20 -19 -19 -19 -19 -18 -18 -19 -19 -19 -19 -19 -19 -19 -19 -19 -19 -20 -21 -22 -22 -22 -22 -22 -20 -19 -18 -18 -19 -18 -18 -19 -19 -19 -19 -19 -18 -18 -17 -17 -16 -16 -16 -16 -18 -18 -16 -13 -12 -11
-19 -20 -20 -20 -20 -20 -20 -20 -20 -21 -21 -21 -20 -20 -20 -20 -19 -19 -19 -20 -20 -20 -19 -19 -19 -19 -19 -20 -20 -20 -21 -22 -22 -21 -21 -21 -20 -20 -19 -18 -18 -19 -19 -19 -20 -20 -19 -19 -20 -20 -20 -19 -18 -18 -17 -17 -17 -18 -17 -15 -14 -13 -11
-20 -20 -20 -21 -21 -21 -21 -21 -22 -23 -23 -22 -21 -21 -21 -21 -21 -21 -21 -21 -21 -21 -21 -20 -20 -20 -20 -20 -20 -21 -21 -21 -20 -20 -19 -19 -19 -19 -18 -18 -18 -19 -20 -20 -20 -20 -20 -20 -21 -22 -21 -19 -19 -19 -18 -18 -19 -19 -17 -15 -14 -13 -12
-21 -20 -21 -21 -21 -21 -22 -22 -23 -24 -23 -22 -21 -21 -21 -21 -22 -21 -21 -21 -21 -21 -21 -21 -21 -21 -20 -20 -20 -20 -20 -20 -20 -19 -19 -19 -19 -19 -18 -18 -19 -19 -19 -20 -20 -20 -20 -21 -21 -22 -21 -20 -20 -21 -21 -21 -21 -19 -18 -16 -15 -14 -13
-21 -21 -21 -22 -22 -22 -22 -23 -24 -24 -23 -22 -21 -21 -21 -21 -21 -21 -21 -21 -21 -21 -21 -21 -21 -20 -20 -21 -20 -20 -20 -20 -19 -19 -20 -20 -19 -19 -19 -19 -19 -19 -20 -20 -20 -21 -21 -21 -21 -22 -22 -22 -22 -22 -22 -22 -21 -19 -17 -17 -16 -15 -14
-21 -22 -22 -22 -22 -22 -23 -23 -24 -24 -23 -22 -22 -22 -21 -21 -22 -22 -21 -21 -21 -21 -21 -21 -21 -20 -20 -20 -20 -19 -19 -19 -20 -20 -21 -21 -20 -19 -19 -20 -20 -20 -20 -20 -21 -21 -21 -21 -22 -22 -22 -22 -23 -23 -23 -23 -21 -19 -18 -17 -17 -16 -15
-22 -22 -22 -23 -22 -23 -23 -24 -24 -24 -24 -23 -23 -22 -21 -21 -21 -21 -21 -21 -21 -21 -21 -21 -21 -20 -20 -20 -19 -19 -20 -20 -21 -22 -22 -21 -20 -20 -20 -20 -20 -20 -20 -20 -21 -21 -21 -21 -22 -22 -22 -23 -23 -23 -23 -22 -21 -20 -19 -18 -17 -17 -16
-23 -22 -23 -23 -23 -23 -24 -24 -24 -25 -25 -24 -23 -22 -21 -21 -21 -21 -21 -21 -21 -21 -21 -21 -21 -21 -21 -21 -21 -20 -21 -21 -22 -22 -22 -21 -21 -20 -20 -20 -20 -21 -21 -21 -21 -21 -21 -22 -22 -23 -23 -24 -24 -24 -23 -22 -21 -20 -20 -19 -18 -17 -17
-23 -23 -23 -23 -23 -23 -24 -24 -25 -25 -25 -24 -23 -22 -22 -22 -22 -22 -22 -22 -22 -22 -22 -21 -21 -21 -21 -22 -22 -22 -22 -22 -22 -22 -21 -21 -21 -21 -21 -21 -21 -21 -22 -22 -22 -22 -22 -23 -23 -23 -24 -24 -24 -24 -24 -23 -22 -21 -20 -20 -19 -18 -17
-23 -23 -23 -23 -24 -24 -24 -25 -25 -25 -25 -24 -24 -22 -22 -22 -23 -23 -23 -23 -22 -22 -22 -21 -21 -22 -22 -22 -22 -22 -22 -22 -21 -21 -21 -21 -21 -21 -21 -21 -21 -22 -22 -22 -22 -23 -23 -23 -23 -23 -23 -24 -24 -25 -25 -24 -23 -22 -22 -21 -20 -19 -18
-24 -24 -24 -24 -24 -24 -24 -25 -25 -25 -25 -25 -24 -23 -22 -22 -22 -22 -23 -23 -22 -22 -22 -22 -22 -22 -23 -22 -22 -22 -22 -22 -21 -21 -21 -21 -21 -21 -21 -21 -21 -21 -22 -22 -22 -23 -23 -23 -23 -24 -24 -25 -25 -26 -25 -25 -24 -24 -23 -22 -21 -20 -19
-25 -24 -24 -24 -24 -24 -24 -25 -25 -25 -25 -24 -24 -22 -22 -22 -22 -22 -22 -22 -22 -22 -22 -22 -22 -22 -23 -22 -22 -21 -22 -22 -22 -21 -21 -21 -21 -21 -21 -21 -21 -22 -22 -22 -22 -23 -23 -23 -24 -24 -25 -26 -27 -27 -27 -26 -25 -25 -25 -24 -24 -22 -20
-25 -25 -24 -24 -24 -24 -24 -25 -25 -25 -25 -24 -23 -22 -21 -21 -21 -21 -22 -22 -22 -22 -22 -23 -23 -22 -22 -22 -22 -22 -22 -22 -22 -21 -21 -21 -21 -21 -22 -22 -22 -22 -22 -22 -23 -23 -23 -24 -24 -25 -26 -27 -28 -29 -30 -29 -28 -27 -26 -26 -26 -25 -22
-25 -25 -24 -24 -24 -24 -24 -25 -25 -25 -24 -24 -23 -22 -21 -22 -22 -21 -21 -21 -21 -22 -22 -23 -23 -23 -23 -23 -23 -23 -24 -23 -22 -22 -22 -22 -22 -22 -22 -22 -22 -23 -23 -23 -23 -23 -24 -24 -26 -27 -28 -30 -31 -32 -32 -32 -31 -30 -29 -29 -29 -27 -25
-26 -25 -25 -24 -24 -24 -24 -25 -25 -25 -24 -24 -23 -22 -22 -22 -22 -22 -21 -21 -22 -22 -22 -22 -23 -23 -24 -24 -24 -24 -24 -23 -22 -22 -22 -22 -22 -23 -22 -22 -23 -23 -23 -23 -23 -24 -25 -26 -28 -29 -31 -32 -33 -33 -34 -34 -33 -32 -32 -32 -31 -29 -27
-26 -25 -25 -24 -24 -24 -24 -25 -25 -25 -24 -24 -23 -22 -22 -22 -23 -23 -22 -22 -22 -22 -23 -23 -24 -24 -24 -24 -23 -23 -22 -22 -22 -22 -23 -23 -23 -23 -23 -23 -23 -23 -23 -24 -24 -25 -26 -28 -30 -31 -32 -32 -33 -34 -34 -34 -34 -34 -33 -33 -31 -30 -28
-25 -25 -25 -24 -24 -24 -24 -24 -24 -24 -24 -24 -23 -22 -22 -22 -23 -24 -24 -22 -22 -23 -23 -23 -23 -23 -24 -24 -24 -24 -24 -23 -23 -23 -23 -23 -24 -24 -23 -23 -23 -24 -24 -24 -25 -26 -28 -30 -31 -31 -32 -32 -33 -34 -34 -34 -34 -33 -33 -32 -31 -30 -30
-25 -25 -25 -24 -24 -24 -24 -24 -24 -24 -24 -24 -23 -22 -22 -23 -23 -24 -24 -23 -23 -23 -23 -23 -24 -24 -24 -25 -25 -25 -25 -24 -23 -23 -23 -23 -24 -24 -23 -24 -24 -24 -24 -25 -26 -29 -30 -31 -31 -31 -32 -33 -33 -33 -33 -33 -33 -33 -33 -32 -32 -31 -31
-25 -25 -25 -24 -24 -24 -24 -24 -24 -24 -24 -24 -24 -23 -23 -23 -23 -24 -24 -24 -24 -24 -24 -24 -24 -24 -25 -25 -25 -26 -26 -25 -24 -24 -24 -24 -24 -24 -24 -24 -24 -24 -25 -26 -29 -31 -31 -31 -32 -32 -32 -33 -33 -34 -34 -34 -34 -34 -33 -33 -33 -33 -33
-25 -25 -25 -25 -24 -24 -24 -24 -24 -24 -24 -24 -24 -24 -23 -23 -23 -23 -23 -24 -24 -24 -24 -24 -24 -25 -26 -27 -28 -29 -28 -26 -24 -24 -24 -24 -25 -25 -24 -24 -24 -25 -26 -29 -31 -32 -32 -32 -32 -32 -33 -33 -33 -34 -34 -34 -34 -34 -34 -34 -34 -34 -35
-25 -25 -25 -25 -25 -25 -24 -24 -24 -24 -24 -24 -24 -24 -24 -23 -24 -24 -24 -24 -24 -24 -25 -25 -27 -28 -30 -33 -34 -34 -32 -28 -26 -25 -25 -25 -25 -25 -25 -25 -25 -27 -29 -31 -32 -32 -32 -32 -33 -33 -33 -33 -33 -34 -34 -34 -34 -34 -35 -35 -35 -36 -36
-24 -25 -25 -25 -25 -24 -24 -24 -24 -24 -24 -24 -24 -24 -24 -24 -25 -25 -25 -26 -26 -26 -27 -28 -30 -31 -33 -35 -37 -37 -36 -32 -29 -27 -26 -25 -25 -25 -26 -27 -28 -30 -32 -32 -32 -32 -32 -32 -32 -32 -32 -33 -33 -33 -34 -34 -34 -34 -34 -34 -35 -36 -35
-24 -24 -24 -24 -24 -24 -24 -24 -25 -24 -24 -24 -25 -25 -25 -25 -26 -26 -26 -25 -25 -27 -29 -31 -31 -30 -30 -33 -36 -37 -36 -36 -34 -31 -30 -29 -29 -29 -30 -31 -32 -33 -33 -32 -32 -32 -32 -32 -32 -32 -32 -32 -33 -33 -33 -33 -33 -33 -33 -33 -33 -33 -32
-24 -24 -24 -24 -24 -24 -24 -25 -25 -25 -24 -24 -24 -25 -24 -25 -25 -25 -25 -25 -24 -25 -27 -28 -27 -27 -28 -31 -35 -37 -36 -36 -36 -35 -35 -34 -34 -33 -33 -33 -32 -32 -32 -32 -32 -32 -32 -32 -32 -32 -32 -32 -32 -32 -32 -31 -31 -31 -31 -30 -30 -30 -30
-24 -24 -24 -24 -24 -25 -25 -25 -25 -25 -24 -24 -24 -24 -24 -24 -24 -24 -24 -24 -24 -25 -25 -25 -26 -26 -27 -30 -33 -36 -36 -36 -36 -36 -35 -35 -34 -33 -32 -31 -31 -31 -31 -31 -31 -31 -31 -31 -31 -31 -31 -30 -30 -30 -30 -30 -30 -29 -29 -29 -29 -29 -28
-25 -24 -24 -25 -25 -25 -25 -24 -24 -24 -25 -25 -25 -24 -24 -24 -24 -24 -24 -24 -24 -25 -25 -25 -26 -26 -27 -29 -32 -35 -35 -36 -36 -35 -34 -33 -32 -31 -30 -30 -30 -30 -30 -30 -30 -30 -30 -30 -30 -30 -30 -30 -30 -30 -29 -29 -29 -29 -28 -28 -28 -28 -28
-25 -25 -24 -25 -25 -25 -24 -24 -24 -24 -24 -25 -25 -24 -25 -25 -24 -24 -24 -24 -24 -25 -25 -25 -26 -27 -27 -28 -31 -34 -34 -35 -35 -33 -32 -31 -30 -30 -30 -30 -29 -30 -30 -30 -30 -30 -30 -30 -30 -30 -30 -30 -29 -29 -29 -28 -28 -28 -28 -28 -28 -28 -28
-25 -25 -24 -25 -25 -25 -25 -25 -24 -24 -24 -25 -25 -25 -25 -26 -26 -25 -25 -25 -25 -25 -26 -26 -26 -27 -27 -27 -30 -32 -33 -33 -32 -32 -31 -30 -30 -30 -29 -29 -29 -29 -29 -29 -29 -30 -30 -30 -30 -30 -30 -29 -29 -28 -28 -28 -28 -27 -27 -27 -27 -27 -27
-25 -25 -25 -25 -25 -25 -25 -25 -25 -25 -25 -25 -25 -25 -25 -26 -26 -26 -26 -27 -26 -26 -27 -26 -27 -27 -27 -27 -28 -31 -32 -32 -31 -31 -30 -30 -30 -29 -29 -29 -29 -29 -29 -29 -29 -29 -29 -29 -29 -29 -29 -28 -28 -28 -27 -27 -27 -27 -27 -27 -27 -26 -26
-25 -25 -25 -25 -25 -25 -25 -25 -25 -25 -25 -25 -25 -25 -25 -26 -26 -26 -27 -27 -27 -27 -27 -27 -27 -27 -27 -27 -28 -30 -31 -31 -31 -30 -30 -30 -29 -29 -28 -28 -28 -28 -29 -29 -29 -29 -29 -29 -29 -28 -28 -28 -27 -27 -27 -27 -27 -27 -26 -26 -26 -26 -26
Wind_Speed
20 20 20 21 21 22 21 21 21 21 21 21 22 22 22 23 26 26 25 25 25 24 23 23 23 24 25 26 27 27 26 27 27 26 26 26 25 25 23 23 23 27 30 26 24 26 27 26 26 26 27 31 34 34 33 31 28 27 28 31 31 28 26
21 20 21 23 23 22 22 21 21 22 22 22 22 23 23 23 24 25 25 25 26 25 24 24 24 25 26 26 26 27 28 28 28 28 29 29 28 28 25 23 22 25 28 28 24 23 23 23 24 25 25 26 31 34 33 31 30 26 25 26 28 28 27
21 21 22 23 23 23 22 22 22 21 21 21 22 23 25 25 24 24 24 24 25 25 26 26 26 26 26 27 28 30 29 29 29 30 31 31 30 29 26 22 20 22 26 27 25 22 24 25 25 26 25 26 29 31 30 30 30 28 25 23 24 25 27
21 22 23 24 24 23 22 22 21 20 20 20 21 23 25 26 26 27 28 28 28 28 28 29 29 29 29 29 30 31 30 30 31 31 32 32 31 29 27 22 20 22 23 25 26 26 26 26 25 26 26 25 25 25 25 28 29 28 25 22 21 23 26
23 24 25 25 24 23 22 22 21 21 21 20 21 23 25 26 28 29 30 30 29 29 29 29 30 30 30 30 30 31 31 31 32 32 32 33 31 28 25 22 23 25 26 27 29 29 27 24 24 26 23 21 22 24 26 28 30 28 25 22 19 18 21
25 25 26 26 25 24 23 23 22 22 22 21 21 22 24 26 27 27 27 27 27 27 28 28 29 30 30 30 31 31 32 33 33 33 33 31 28 24 22 23 23 23 24 26 26 26 24 23 23 22 20 19 21 24 25 28 30 28 23 21 20 16 16
27 28 28 27 25 24 25 24 24 24 24 23 22 23 23 24 25 26 27 28 28 28 29 29 30 31 31 31 32 32 33 34 33 31 29 26 21 17 18 21 21 19 19 22 23 22 22 21 20 18 19 21 23 23 24 24 28 29 23 20 21 19 15
29 30 29 27 26 26 26 27 27 28 27 25 24 25 26 27 27 28 30 32 33 33 34 34 34 33 33 32 32 32 32 31 29 25 23 20 16 15 18 21 21 20 20 21 22 22 21 20 20 20 20 23 25 25 24 22 24 28 25 21 21 21 17
31 31 29 27 27 26 27 29 29 29 27 25 25 27 29 30 31 32 33 34 34 34 34 34 33 33 32 31 30 30 27 25 22 20 20 20 18 19 21 22 21 21 21 22 22 22 20 19 21 20 20 23 25 23 23 24 25 25 24 21 20 19 18
30 30 29 28 27 28 28 28 28 27 25 24 24 25 27 28 29 29 30 30 30 30 30 30 30 29 28 26 25 23 21 21 19 17 18 20 20 20 21 22 22 21 21 22 22 21 18 18 20 20 20 23 25 23 23 26 26 23 20 19 18 15 14
29 30 30 28 27 27 27 26 25 24 24 23 23 24 26 27 28 28 29 29 29 29 29 28 28 26 25 25 23 19 18 18 17 17 18 19 19 20 20 20 21 21 20 20 21 20 19 19 20 21 23 25 24 22 21 22 22 19 17 17 16 14 12
29 30 29 27 27 27 27 26 25 23 23 23 24 24 25 26 27 27 28 28 27 27 26 25 25 24 23 22 19 17 16 17 18 20 20 20 20 23 23 21 19 18 18 20 21 22 21 21 21 22 24 26 24 20 20 20 19 17 16 15 14 13 11
28 28 26 25 26 28 28 27 24 22 22 22 22 22 23 24 25 25 26 26 25 25 24 24 24 24 23 21 20 20 21 23 24 24 22 20 22 24 24 22 20 18 19 21 22 22 22 21 20 21 22 23 23 20 19 18 16 14 14 13 12 12 11
26 25 25 25 27 28 29 26 23 21 20 20 21 21 22 22 23 24 24 25 25 25 25 24 24 25 26 26 26 27 29 29 29 27 24 22 21 21 21 21 21 21 21 21 21 22 22 20 19 20 22 22 20 18 17 17 15 14 14 12 12 12 10
24 24 24 25 27 28 27 25 21 20 19 19 20 20 20 21 22 23 24 25 25 24 22 21 23 24 25 25 25 26 26 25 24 22 21 19 19 19 20 21 22 21 21 21 21 21 21 20 18 19 20 21 21 19 17 17 17 17 16 15 14 12 9
24 24 25 26 26 26 25 23 20 19 18 18 18 17 18 20 20 20 21 21 19 18 18 20 23 24 23 22 21 21 21 19 18 18 17 17 18 19 20 20 20 20 19 19 18 17 17 17 17 17 19 22 25 24 20 18 19 19 18 18 17 14 10
25 25 26 26 25 24 23 21 19 18 18 17 14 13 14 16 17 19 19 16 13 15 18 19 20 19 18 17 18 19 18 17 17 18 18 18 19 19 19 19 19 18 17 17 17 16 17 19 20 22 24 26 28 27 24 22 22 21 19 19 19 16 12
26 26 26 26 24 23 22 22 20 18 17 15 10 8 12 16 18 19 18 15 12 14 16 16 16 15 15 15 16 17 17 16 16 17 18 19 19 19 19 20 20 19 18 18 18 19 20 23 25 26 27 28 29 29 26 25 25 23 21 20 20 18 16
26 26 26 25 24 23 22 22 20 17 16 13 8 7 13 17 16 16 16 14 12 14 16 15 13 11 11 11 12 14 15 15 16 18 20 20 20 19 19 20 20 20 19 19 19 20 22 24 26 27 28 29 29 29 27 26 25 24 22 21 19 17 18
25 26 25 23 23 22 21 22 20 17 14 11 8 6 12 15 13 12 13 13 13 14 14 12 10 8 9 10 12 14 15 15 17 19 19 19 18 17 17 18 19 20 20 20 21 22 24 26 27 28 28 28 27 27 25 24 23 22 22 20 18 17 19
24 25 25 23 22 21 20 20 19 15 12 11 10 6 11 15 12 11 12 14 14 13 11 10 11 12 12 13 14 15 15 15 17 19 19 17 17 16 15 16 18 19 20 21 22 24 26 27 27 27 26 24 22 22 21 21 20 20 19 18 16 17 19
23 23 23 21 20 19 18 18 16 13 11 11 11 8 10 13 13 12 13 14 12 11 12 14 15 15 15 14 11 10 11 10 12 15 14 14 16 18 17 17 18 19 20 21 23 25 27 26 25 24 22 19 18 18 17 17 17 17 16 16 15 15 17
22 21 21 19 18 17 17 16 16 14 11 10 12 11 7 9 12 13 11 12 13 13 15 16 16 15 15 14 13 14 15 13 13 15 14 14 18 19 18 17 18 19 20 22 25 27 26 24 21 20 18 16 15 14 14 14 14 13 13 13 13 13 15
22 21 21 20 19 18 18 16 15 16 13 10 12 13 8 8 13 14 10 10 13 14 15 16 16 17 18 19 21 22 20 18 18 19 18 18 19 18 17 18 18 20 22 25 27 26 23 20 17 16 15 14 12 11 11 11 11 11 11 10 10 10 11
20 19 20 20 20 19 18 16 13 15 15 12 11 13 12 14 18 19 15 14 15 16 17 19 21 23 24 24 23 22 18 17 19 20 20 19 18 18 19 20 21 23 26 27 25 22 19 16 14 13 12 11 9 9 8 8 9 9 9 8 8 8 9
19 18 18 19 20 19 18 15 12 14 16 15 12 13 17 21 23 23 22 22 22 22 23 23 24 25 23 22 20 19 18 19 21 22 22 21 21 21 21 23 24 26 27 25 21 17 15 13 12 10 9 8 7 6 6 7 7 7 7 7 7 8 8
19 18 18 18 18 18 17 14 12 13 15 14 13 12 15 20 23 23 23 24 23 23 23 21 19 19 18 17 17 17 17 19 21 24 25 24 24 25 25 26 27 26 24 20 16 13 12 10 9 8 6 5 5 5 5 5 5 6 6 7 8 9 9
20 19 18 19 19 19 18 15 13 12 12 12 13 13 14 16 18 18 17 17 16 16 15 14 13 14 14 14 15 15 16 17 19 22 24 25 25 26 26 25 24 21 18 15 12 10 9 8 7 5 4 3 4 4 4 5 5 6 7 8 8 9 9
20 19 18 18 18 17 16 15 13 11 11 12 14 15 15 16 15 12 11 12 12 12 12 12 13 14 14 13 13 13 13 14 15 16 19 20 21 21 20 19 17 15 13 11 10 8 7 6 5 4 3 3 4 4 4 5 5 5 6 7 8 8 8
18 17 16 16 14 11 12 16 16 12 11 12 13 13 15 16 15 14 14 15 14 14 13 14 15 16 16 14 12 12 12 12 12 12 13 14 15 14 13 13 11 10 9 8 8 7 6 4 4 3 3 3 3 4 4 4 5 5 5 6 6 6 6
17 17 15 15 15 13 15 19 18 15 15 15 15 16 16 16 16 19 20 19 17 17 16 16 16 17 16 15 13 12 12 11 11 11 10 10 10 10 9 9 8 8 7 7 6 5 4 3 3 3 3 3 3 4 4 4 5 5 5 5 5 5 5
17 17 16 15 16 17 17 17 17 17 19 19 17 15 15 14 15 20 24 22 19 18 18 16 16 16 16 15 13 11 11 10 10 10 9 8 8 8 8 8 7 7 6 6 5 4 3 3 4 4 4 4 4 3 3 4 4 5 5 5 5 5 5
17 17 16 15 16 17 16 14 13 13 16 14 9 9 12 13 13 18 23 22 19 18 17 16 16 16 15 15 14 11 10 9 9 8 8 8 7 7 7 7 7 7 6 6 5 4 4 4 4 4 4 4 4 4 4 4 5 5 5 5 5 5 4
15 15 15 15 16 17 19 19 18 16 16 15 11 10 13 14 12 13 17 18 18 17 16 16 18 18 16 14 14 12 10 8 8 8 8 7 7 7 7 7 7 7 6 6 5 5 5 5 5 4 4 3 3 4 4 5 6 6 6 5 5 4 3
15 14 14 16 17 19 21 23 24 23 22 22 20 17 15 16 16 16 16 16 16 16 17 18 20 20 16 14 14 13 10 8 7 8 8 7 7 7 7 7 7 7 6 5 5 5 5 5 4 4 4 4 4 5 5 6 5 5 5 5 4 3 2
18 16 14 15 17 18 20 21 23 24 25 26 25 21 18 18 20 21 19 19 19 19 19 18 18 16 14 13 13 13 11 9 8 8 8 7 7 7 8 7 6 6 6 5 5 5 4 4 4 4 5 5 5 5 6 5 5 4 4 3 3 3 3
Wind_Direction
295 292 291 289 290 290 288 286 285 283 285 288 288 286 283 275 265 260 259 257 258 259 257 258 261 264 268 270 272 277 284 291 294 297 298 299 299 296 290 287 286 285 288 291 292 295 299 303 304 303 303 302 299 298 298 296 289 281 279 279 277 276 278
292 291 293 296 297 297 293 287 283 279 275 276 281 282 279 273 263 258 257 256 254 254 254 259 263 264 265 266 272 281 289 293 296 299 300 300 300 298 292 287 285 285 287 289 294 298 299 299 299 300 304 303 299 298 301 303 298 288 281 279 278 273 271
292 289 293 300 299 298 298 293 287 283 279 275 275 275 271 266 259 255 255 255 255 257 258 260 260 259 262 269 279 285 288 292 296 298 298 298 298 296 290 283 280 281 282 286 291 293 291 294 299 302 302 301 301 303 306 304 299 294 288 281 279 274 267
288 288 293 298 298 297 299 298 294 291 285 275 269 268 266 262 258 258 260 263 263 262 260 260 261 263 269 277 282 285 287 291 295 296 295 294 295 294 289 282 277 273 272 276 283 287 290 297 302 302 304 309 311 308 304 298 295 298 295 285 283 283 274
285 288 295 299 299 297 294 295 295 293 290 283 272 266 265 264 264 265 266 266 265 263 264 266 269 272 277 281 283 284 288 292 295 295 294 292 291 289 283 274 267 264 265 272 281 288 294 299 302 305 312 317 310 299 292 289 288 293 297 289 283 283 276
287 292 297 299 297 294 291 291 289 287 289 290 284 275 270 268 267 265 263 262 261 263 266 270 274 278 282 284 287 289 292 295 297 295 293 291 289 285 278 270 266 268 269 272 280 288 295 300 304 307 313 309 299 294 294 292 289 291 295 287 279 275 269
290 293 295 296 293 288 286 286 284 282 284 286 284 280 275 270 268 267 265 265 267 269 272 275 278 281 283 285 287 290 293 295 295 293 292 291 288 283 279 274 273 274 272 271 278 286 291 296 296 296 302 300 292 289 292 296 296 296 298 291 281 278 270
291 292 292 292 290 284 280 281 282 284 286 285 278 272 269 267 266 266 268 271 274 276 277 279 279 279 281 283 286 289 292 293 292 292 295 298 296 284 274 269 269 269 270 272 278 284 287 290 289 288 293 292 287 284 286 293 300 302 304 300 289 283 279
291 290 291 292 289 285 283 285 288 290 289 285 278 273 273 274 273 274 276 278 281 282 281 282 282 283 285 287 289 292 291 288 284 285 290 293 294 287 271 261 259 263 268 275 281 287 292 294 294 294 292 288 287 289 289 293 301 304 305 303 293 285 283
292 290 293 294 292 288 289 292 294 294 291 285 282 283 285 285 283 282 282 282 283 283 284 285 285 287 289 289 292 292 284 276 271 271 274 275 279 280 267 254 256 266 274 279 283 288 293 294 296 297 292 287 289 291 291 293 299 302 303 303 296 285 280
292 292 294 294 291 289 292 296 297 297 294 288 284 284 283 281 280 279 279 280 279 279 280 281 282 284 286 288 290 285 275 271 265 266 273 274 272 271 263 259 269 279 282 282 283 286 288 290 295 296 293 292 297 300 296 295 298 301 303 306 303 292 278
290 291 293 294 292 292 297 301 302 300 294 288 285 283 282 281 281 281 281 282 281 281 282 282 283 284 283 283 283 275 267 264 261 268 281 281 269 262 262 268 278 281 279 281 284 285 287 289 292 294 295 297 303 305 298 296 297 297 296 299 304 302 286
294 293 294 292 290 294 299 303 305 303 297 293 291 288 285 284 283 281 281 281 280 279 277 276 275 273 269 266 265 267 270 269 270 277 283 277 265 261 264 270 274 274 277 282 283 284 287 289 291 292 293 297 304 306 301 299 298 293 288 285 292 299 290
296 294 291 288 288 293 300 304 306 304 300 298 294 290 288 285 281 278 276 274 273 272 272 272 271 268 266 264 265 269 273 274 276 280 280 272 266 265 267 270 272 275 278 279 279 282 285 288 290 291 293 296 301 301 297 297 296 292 288 282 279 283 281
297 293 289 288 291 296 301 305 307 305 302 298 293 290 289 283 277 275 272 270 270 271 272 272 270 270 272 273 273 273 275 277 278 277 274 270 266 266 270 274 277 280 280 278 280 283 286 290 293 296 298 299 299 295 290 290 290 290 291 285 276 271 272
297 294 292 293 295 298 301 303 304 305 302 296 292 290 286 282 280 280 279 278 276 273 271 269 270 274 278 279 279 278 276 277 277 276 273 272 271 273 276 277 279 280 278 277 280 284 289 295 298 298 296 294 294 293 288 284 283 282 283 282 277 272 270
299 297 297 297 298 299 300 301 303 306 303 296 291 287 286 288 291 292 292 289 277 269 270 273 276 280 280 278 279 278 276 274 274 276 277 277 277 277 276 276 277 278 276 272 272 274 280 286 291 294 294 291 289 290 287 285 283 279 277 277 275 270 264
301 300 299 298 298 301 302 303 306 307 303 295 283 282 293 294 292 292 293 292 278 269 275 281 283 284 284 285 283 281 279 276 273 274 277 279 278 277 275 274 273 274 273 272 271 272 277 284 289 292 292 290 287 287 285 283 282 279 277 273 270 266 261
300 300 299 298 298 301 301 303 305 304 300 288 264 281 302 296 287 287 289 283 268 263 274 286 291 289 289 290 288 283 279 275 273 274 276 277 276 272 270 270 269 269 269 271 273 275 279 285 288 289 289 287 285 285 284 282 279 277 275 270 265 259 255
299 299 299 297 295 296 297 301 302 300 295 274 245 276 306 297 286 284 276 261 253 259 272 285 284 273 265 266 278 287 284 279 277 275 274 275 277 273 268 265 264 265 267 271 275 279 284 288 290 289 287 285 283 283 281 278 275 272 270 268 261 251 244
299 298 298 296 294 293 295 299 300 298 289 264 237 260 302 294 283 275 259 250 254 257 254 251 252 254 260 270 286 302 300 284 273 272 274 277 279 275 267 263 262 264 269 274 280 287 293 295 294 290 285 282 281 280 278 275 272 268 266 264 256 246 240
300 297 297 296 293 292 294 299 301 296 283 260 237 248 292 293 283 276 262 254 253 246 234 241 252 259 269 279 291 314 316 286 259 264 271 270 270 270 266 262 263 267 273 281 289 296 299 298 294 288 286 283 279 277 274 271 268 264 261 259 252 244 240
304 301 301 300 298 299 302 306 306 299 287 262 237 239 276 291 280 278 270 253 247 246 249 258 266 268 275 284 286 292 299 286 263 262 261 255 261 267 267 265 266 272 282 292 299 302 300 296 291 286 285 283 278 274 271 266 263 261 258 256 252 245 241
306 303 302 302 301 302 304 306 302 294 290 272 243 240 254 266 264 271 275 260 253 257 262 269 274 276 283 291 290 289 289 279 265 260 254 251 256 261 263 268 275 283 293 300 303 301 297 293 289 284 282 279 274 269 266 261 259 257 253 251 249 245 241
301 295 293 294 294 296 301 303 293 283 285 283 259 244 242 246 254 264 273 273 270 271 273 278 284 288 291 293 291 288 281 266 255 251 247 247 253 259 267 276 284 292 298 302 301 298 295 291 287 281 276 272 267 263 259 256 255 252 245 239 237 235 231
299 292 286 285 287 291 297 298 284 270 275 283 275 253 243 248 256 264 271 276 279 281 283 286 290 292 293 292 288 282 271 259 251 249 250 254 260 268 276 283 290 295 299 299 297 294 291 287 282 276 271 265 260 258 254 250 248 244 234 221 216 216 213
297 290 284 282 284 287 293 294 284 272 274 281 283 271 256 254 260 266 271 277 281 283 286 288 291 293 294 291 286 280 270 260 254 253 256 261 266 273 279 285 290 294 295 294 292 289 286 282 275 268 265 260 254 251 245 235 226 221 215 206 203 203 200
292 286 279 277 278 280 283 283 277 275 280 280 275 271 270 271 275 278 281 286 290 290 289 290 296 304 306 298 288 281 275 268 263 261 263 266 270 275 280 285 289 291 290 287 286 284 280 274 265 260 260 257 246 233 220 208 200 199 199 195 193 194 192
290 287 283 278 275 278 284 285 276 267 267 267 264 268 278 286 287 288 291 299 306 305 299 297 303 311 315 309 297 287 282 278 274 271 271 273 275 278 281 284 287 288 285 282 279 276 270 262 256 255 257 251 235 217 202 191 185 187 191 192 190 187 186
291 289 285 276 269 272 289 297 292 275 257 255 263 275 282 284 285 287 290 294 296 296 295 296 302 310 316 317 308 296 292 292 288 282 280 280 281 281 282 284 285 284 280 276 271 264 258 255 254 252 247 235 214 200 190 183 178 177 180 186 184 177 175
295 291 283 271 266 271 287 294 288 270 253 257 270 277 274 272 274 277 280 284 286 285 286 291 297 303 312 316 309 297 294 296 294 290 287 284 283 284 284 285 282 277 273 270 263 257 256 255 247 236 226 211 193 185 181 176 171 165 160 164 164 159 159
292 286 279 270 265 270 280 286 279 266 261 268 279 283 275 267 261 259 262 270 278 278 280 287 294 300 309 313 307 297 292 290 288 287 286 284 284 286 285 281 276 272 270 266 260 257 254 246 235 227 215 197 180 173 171 163 154 145 142 144 145 147 153
291 285 275 265 259 259 263 267 265 263 264 265 269 274 272 266 253 249 254 262 269 272 277 286 293 298 305 308 305 298 289 285 282 281 281 283 285 285 281 277 275 273 270 264 257 251 244 237 228 221 215 201 180 164 153 141 132 130 132 135 136 141 152
294 287 276 264 255 250 251 252 249 248 252 250 244 257 276 277 262 248 251 257 262 268 277 285 290 294 298 300 300 295 286 278 276 276 278 283 287 283 277 277 277 273 267 261 253 244 236 230 220 210 200 186 164 146 134 129 127 126 126 126 125 126 137
298 290 279 269 260 253 254 257 256 253 253 255 255 258 269 275 269 261 258 259 262 269 276 281 285 288 290 291 291 289 282 273 271 273 277 282 284 281 278 277 275 270 264 254 242 232 224 215 205 191 173 158 147 137 127 122 122 119 116 115 110 100 90
300 296 287 278 272 268 265 264 262 257 255 258 261 261 257 259 264 268 270 269 270 273 277 279 280 282 284 286 286 283 277 269 265 269 274 277 278 277 277 275 272 266 258 245 231 220 208 193 178 163 153 147 139 131 124 119 114 107 101 93 85 73 60
Height
1469 1468 1467 1466 1465 1465 1464 1463 1463 1462 1461 1460 1458 1458 1457 1457 1456 1456 1455 1455 1454 1454 1453 1453 1452 1451 1450 1449 1448 1447 1446 1446 1445 1444 1443 1443 1441 1440 1440 1439 1437 1434 1430 1429 1430 1428 1427 1426 1425 1424 1422 1420 1418 1417 1417 1416 1416 1415 1415 1413 1413 1414 1414
1467 1466 1464 1463 1463 1462 1461 1460 1459 1459 1458 1457 1456 1455 1454 1454 1453 1452 1451 1451 1450 1450 1450 1450 1449 1448 1447 1446 1445 1444 1443 1442 1442 1441 1440 1439 1438 1437 1436 1436 1435 1433 1429 1426 1427 1426 1425 1424 1423 1421 1421 1419 1416 1414 1414 1413 1412 1412 1411 1411 1410 1410 1411
1464 1463 1462 1461 1460 1459 1457 1456 1456 1455 1454 1454 1453 1452 1451 1450 1449 1448 1448 1447 1447 1447 1447 1446 1445 1444 1444 1443 1442 1441 1441 1440 1439 1438 1436 1436 1435 1434 1433 1433 1432 1431 1428 1425 1424 1424 1422 1421 1420 1419 1419 1418 1415 1413 1412 1410 1409 1408 1408 1408 1408 1407 1407
1461 1460 1459 1458 1457 1456 1454 1453 1452 1451 1450 1450 1449 1448 1447 1446 1446 1445 1445 1444 1444 1444 1443 1443 1442 1441 1441 1440 1439 1437 1437 1437 1435 1435 1433 1432 1431 1430 1429 1429 1429 1428 1426 1423 1421 1421 1420 1419 1418 1417 1416 1416 1414 1412 1410 1408 1406 1406 1406 1406 1406 1405 1404
1458 1457 1456 1455 1454 1453 1452 1450 1449 1448 1447 1446 1445 1445 1444 1443 1443 1442 1442 1441 1441 1440 1440 1439 1438 1438 1437 1436 1435 1434 1433 1433 1432 1431 1430 1428 1427 1427 1426 1426 1426 1424 1423 1421 1419 1418 1418 1418 1416 1415 1415 1414 1412 1410 1408 1406 1405 1404 1404 1403 1403 1402 1401
1455 1454 1453 1452 1451 1449 1448 1447 1446 1445 1444 1443 1442 1441 1441 1440 1439 1438 1438 1437 1437 1436 1436 1435 1435 1434 1434 1433 1431 1430 1430 1429 1428 1427 1425 1424 1423 1423 1423 1422 1422 1421 1420 1419 1418 1417 1416 1416 1415 1413 1413 1413 1411 1408 1406 1404 1401 1401 1402 1401 1399 1399 1398
1452 1451 1450 1449 1448 1446 1445 1444 1443 1442 1440 1440 1439 1438 1437 1436 1435 1434 1434 1433 1433 1433 1432 1432 1431 1430 1430 1429 1428 1427 1426 1425 1424 1423 1421 1420 1420 1420 1420 1419 1419 1418 1418 1416 1416 1415 1415 1414 1413 1412 1411 1410 1408 1406 1405 1402 1399 1397 1398 1398 1397 1396 1396
1449 1448 1446 1445 1444 1443 1442 1440 1439 1438 1437 1436 1436 1435 1433 1432 1432 1431 1430 1430 1429 1429 1428 1427 1427 1426 1426 1425 1424 1423 1422 1421 1420 1419 1418 1417 1418 1418 1418 1417 1416 1416 1415 1414 1414 1413 1412 1412 1410 1410 1409 1406 1404 1403 1403 1402 1400 1396 1395 1395 1394 1394 1394
1445 1443 1442 1441 1440 1439 1437 1436 1435 1434 1433 1432 1431 1430 1429 1428 1428 1427 1426 1425 1424 1423 1423 1423 1422 1422 1421 1421 1420 1419 1418 1418 1417 1417 1416 1416 1416 1416 1415 1414 1413 1413 1412 1412 1411 1410 1410 1409 1408 1407 1406 1403 1402 1402 1401 1400 1399 1397 1395 1394 1393 1392 1392
1441 1439 1438 1436 1435 1434 1433 1432 1431 1430 1429 1428 1427 1427 1425 1424 1423 1423 1422 1421 1420 1419 1419 1419 1418 1418 1417 1417 1417 1416 1415 1415 1415 1415 1415 1415 1414 1414 1412 1411 1410 1410 1410 1409 1408 1408 1407 1406 1405 1405 1404 1401 1401 1401 1400 1399 1397 1396 1395 1393 1391 1390 1390
1436 1435 1434 1432 1431 1430 1429 1428 1427 1426 1425 1425 1425 1424 1422 1421 1420 1419 1418 1417 1416 1416 1415 1415 1415 1414 1414 1414 1413 1413 1413 1413 1413 1413 1413 1412 1412 1411 1410 1408 1408 1408 1407 1407 1406 1405 1405 1404 1403 1402 1401 1399 1399 1399 1398 1397 1395 1394 1393 1392 1389 1388 1388
1432 1431 1429 1428 1427 1426 1425 1424 1423 1422 1422 1421 1420 1420 1419 1418 1416 1415 1414 1414 1413 1412 1412 1412 1412 1411 1411 1411 1410 1410 1410 1410 1410 1410 1410 1410 1409 1408 1407 1407 1407 1406 1405 1404 1403 1403 1402 1402 1401 1400 1398 1397 1397 1397 1395 1394 1393 1392 1392 1391 1389 1387 1386
1428 1427 1426 1425 1423 1422 1421 1420 1420 1419 1418 1417 1416 1416 1415 1414 1413 1412 1411 1410 1410 1409 1409 1409 1409 1408 1408 1408 1408 1407 1407 1406 1407 1407 1407 1407 1406 1405 1405 1405 1404 1404 1402 1402 1401 1400 1399 1399 1399 1397 1396 1395 1395 1394 1393 1391 1391 1390 1389 1389 1388 1386 1385
1425 1424 1423 1422 1420 1419 1418 1417 1416 1415 1414 1413 1413 1412 1412 1411 1410 1409 1408 1407 1406 1406 1406 1406 1405 1405 1405 1405 1405 1404 1404 1404 1404 1404 1403 1403 1402 1402 1402 1402 1401 1401 1400 1400 1398 1397 1397 1397 1397 1395 1394 1393 1393 1392 1391 1389 1388 1388 1387 1386 1386 1385 1384
1421 1420 1419 1418 1417 1416 1414 1414 1413 1412 1411 1410 1409 1409 1409 1407 1406 1405 1404 1403 1403 1402 1402 1403 1402 1402 1401 1401 1401 1401 1401 1400 1400 1400 1400 1399 1399 1399 1399 1399 1399 1398 1398 1397 1396 1395 1395 1394 1394 1393 1391 1391 1390 1389 1389 1388 1387 1386 1385 1384 1383 1383 1383
1418 1417 1416 1415 1414 1412 1411 1411 1410 1409 1408 1407 1406 1406 1405 1404 1402 1401 1400 1399 1399 1400 1400 1400 1399 1399 1399 1398 1398 1398 1398 1398 1398 1397 1397 1397 1397 1397 1397 1396 1396 1395 1395 1394 1394 1393 1392 1392 1392 1391 1390 1389 1387 1386 1386 1386 1385 1384 1383 1382 1381 1381 1381
1415 1414 1413 1411 1410 1409 1408 1407 1407 1407 1405 1404 1403 1403 1402 1401 1400 1398 1398 1397 1397 1397 1398 1397 1397 1396 1396 1395 1395 1395 1395 1396 1396 1395 1395 1394 1394 1394 1394 1393 1393 1393 1393 1392 1392 1392 1391 1390 1389 1389 1388 1387 1385 1383 1383 1382 1381 1381 1381 1380 1379 1379 1379
1411 1410 1409 1408 1407 1406 1405 1404 1404 1404 1402 1402 1401 1401 1400 1399 1398 1396 1396 1395 1395 1395 1395 1395 1394 1394 1393 1393 1393 1393 1393 1394 1394 1393 1392 1392 1392 1391 1391 1390 1390 1390 1390 1390 1389 1389 1388 1387 1386 1385 1385 1383 1382 1380 1380 1379 1378 1378 1378 1377 1377 1377 1377
1408 1407 1406 1405 1404 1404 1402 1401 1401 1401 1400 1399 1399 1399 1399 1397 1395 1394 1394 1393 1394 1394 1393 1393 1392 1392 1392 1391 1391 1391 1391 1391 1391 1390 1389 1389 1389 1388 1388 1388 1388 1388 1388 1387 1387 1386 1385 1384 1383 1382 1381 1380 1378 1377 1376 1376 1375 1374 1374 1374 1374 1374 1374
1406 1404 1403 1402 1402 1401 1400 1399 1398 1398 1398 1397 1397 1397 1397 1395 1394 1393 1392 1392 1392 1392 1392 1391 1391 1390 1390 1390 1389 1389 1389 1388 1388 1387 1386 1386 1386 1386 1386 1385 1385 1385 1385 1385 1384 1383 1382 1381 1379 1378 1377 1376 1375 1374 1373 1372 1372 1371 1371 1371 1371 1372 1371
1402 1401 1400 1399 1399 1398 1398 1397 1396 1395 1395 1394 1395 1395 1395 1393 1392 1392 1391 1391 1391 1391 1390 1390 1389 1389 1388 1388 1388 1388 1386 1386 1385 1384 1384 1384 1383 1383 1383 1383 1383 1383 1382 1382 1381 1380 1378 1377 1375 1374 1373 1372 1372 1371 1370 1369 1368 1368 1368 1368 1368 1368 1368
1399 1398 1396 1396 1396 1395 1395 1394 1393 1393 1393 1392 1393 1394 1393 1391 1390 1390 1389 1389 1389 1389 1388 1388 1388 1388 1387 1387 1387 1387 1385 1384 1382 1382 1382 1382 1381 1380 1381 1381 1381 1380 1380 1379 1378 1376 1375 1373 1371 1370 1369 1369 1369 1368 1367 1366 1366 1365 1365 1365 1365 1366 1366
1396 1395 1393 1392 1392 1392 1392 1391 1391 1390 1390 1390 1391 1391 1392 1390 1388 1387 1387 1387 1387 1387 1386 1386 1386 1386 1386 1386 1386 1385 1384 1383 1381 1380 1380 1380 1378 1378 1379 1379 1378 1378 1377 1376 1375 1373 1371 1370 1369 1367 1366 1366 1366 1365 1365 1364 1364 1363 1363 1363 1363 1364 1364
1393 1392 1390 1390 1389 1389 1389 1389 1389 1388 1388 1388 1389 1389 1390 1388 1386 1385 1386 1386 1386 1385 1385 1385 1384 1384 1384 1384 1383 1382 1382 1381 1380 1378 1378 1377 1377 1377 1376 1376 1376 1375 1374 1373 1372 1370 1368 1367 1366 1365 1364 1364 1363 1363 1363 1362 1362 1362 1362 1362 1362 1362 1362
1390 1389 1389 1388 1387 1387 1387 1387 1387 1386 1386 1386 1386 1387 1388 1386 1384 1383 1384 1384 1384 1384 1383 1383 1382 1381 1381 1380 1379 1378 1378 1378 1377 1376 1376 1375 1375 1374 1374 1374 1373 1373 1371 1370 1369 1367 1366 1365 1364 1363 1362 1362 1362 1361 1361 1361 1361 1361 1360 1360 1361 1361 1361
1388 1387 1387 1386 1385 1385 1385 1385 1385 1384 1384 1384 1384 1385 1385 1383 1382 1382 1382 1382 1382 1382 1381 1380 1379 1378 1378 1377 1376 1375 1375 1375 1374 1374 1373 1373 1373 1372 1372 1372 1371 1370 1369 1367 1366 1365 1364 1363 1362 1362 1361 1361 1360 1360 1360 1360 1360 1360 1360 1360 1360 1360 1360
1385 1385 1384 1384 1383 1383 1383 1383 1383 1382 1382 1382 1381 1382 1381 1381 1380 1381 1380 1380 1380 1379 1378 1378 1377 1376 1375 1374 1373 1372 1372 1371 1371 1371 1371 1371 1371 1370 1370 1369 1368 1367 1366 1365 1364 1363 1363 1362 1361 1361 1360 1360 1360 1359 1359 1359 1359 1359 1359 1359 1359 1359 1359
1383 1382 1382 1382 1381 1381 1380 1380 1381 1380 1380 1380 1379 1379 1379 1378 1378 1378 1378 1377 1377 1376 1376 1375 1374 1373 1372 1371 1370 1369 1369 1369 1369 1369 1368 1368 1368 1368 1367 1367 1366 1365 1364 1363 1363 1362 1361 1361 1360 1360 1359 1359 1359 1359 1359 1359 1359 1359 1359 1359 1359 1359 1359
1380 1379 1379 1379 1379 1378 1378 1378 1378 1379 1379 1379 1378 1377 1377 1376 1376 1376 1376 1375 1375 1374 1374 1373 1373 1372 1371 1369 1368 1367 1367 1366 1366 1366 1366 1366 1366 1365 1365 1364 1364 1363 1362 1362 1361 1361 1361 1360 1360 1359 1359 1359 1359 1359 1359 1359 1359 1359 1359 1359 1359 1359 1359
1377 1377 1376 1376 1376 1376 1376 1376 1376 1377 1377 1377 1376 1376 1376 1375 1374 1374 1373 1373 1373 1373 1372 1372 1371 1370 1369 1368 1367 1366 1365 1364 1364 1364 1364 1364 1364 1363 1363 1362 1362 1362 1361 1361 1361 1360 1360 1359 1359 1359 1359 1359 1359 1359 1359 1359 1359 1359 1359 1359 1359 1359 1359
1375 1374 1374 1373 1373 1373 1374 1374 1374 1374 1375 1374 1374 1374 1373 1373 1373 1372 1371 1371 1371 1371 1370 1370 1369 1368 1367 1367 1365 1364 1364 1363 1363 1363 1363 1362 1362 1362 1361 1361 1361 1361 1360 1360 1360 1360 1359 1359 1359 1359 1359 1359 1359 1359 1359 1359 1359 1359 1359 1359 1359 1359 1359
1372 1372 1371 1371 1371 1372 1372 1372 1371 1371 1372 1371 1372 1371 1370 1371 1371 1369 1368 1369 1369 1369 1368 1368 1367 1367 1366 1365 1364 1363 1363 1362 1362 1361 1361 1361 1361 1361 1361 1360 1360 1360 1360 1360 1359 1359 1359 1359 1359 1358 1358 1358 1358 1358 1358 1359 1359 1359 1359 1359 1359 1359 1359
1370 1369 1369 1369 1369 1370 1370 1369 1369 1369 1369 1369 1370 1369 1367 1367 1368 1367 1366 1367 1367 1367 1366 1366 1366 1365 1365 1364 1363 1362 1361 1361 1360 1360 1360 1360 1360 1360 1360 1360 1360 1359 1359 1359 1359 1359 1359 1358 1358 1358 1358 1358 1358 1358 1358 1359 1359 1359 1359 1359 1359 1359 1359
1367 1366 1365 1365 1366 1367 1367 1366 1366 1367 1367 1367 1367 1367 1365 1364 1365 1365 1365 1365 1365 1365 1365 1364 1364 1363 1363 1363 1362 1361 1360 1360 1360 1360 1359 1360 1360 1360 1359 1359 1359 1359 1359 1359 1358 1358 1358 1358 1358 1358 1358 1358 1358 1358 1359 1359 1359 1359 1359 1359 1359 1359 1359
1364 1364 1363 1362 1362 1363 1363 1363 1363 1364 1364 1364 1364 1365 1364 1362 1362 1362 1363 1363 1363 1363 1363 1362 1361 1361 1361 1361 1360 1360 1359 1359 1359 1359 1359 1359 1359 1359 1359 1359 1359 1358 1358 1358 1358 1358 1358 1358 1358 1358 1358 1358 1358 1359 1359 1359 1359 1359 1359 1359 1359 1359 1359
1360 1360 1360 1359 1359 1359 1359 1359 1359 1359 1360 1360 1361 1362 1362 1361 1359 1359 1359 1360 1360 1360 1360 1360 1359 1359 1359 1359 1359 1358 1358 1358 1358 1358 1358 1358 1358 1358 1358 1358 1358 1358 1358 1358 1358 1358 1358 1358 1358 1358 1358 1359 1359 1359 1359 1359 1359 1359 1359 1359 1359 1359 1359